Simultaneous Nadir Overpasses (SNOs) Predictions

Prediction of SNOs between NOAA-19 and NPP Satellite Orbit:

Table of predicted SNOs for the next 14.0 days since TLE Epoch: 5/12/2017
Index Date (NOAA-19) Time (NOAA-19) Lat,Lon (NOAA-19) SZA (NOAA-19 ) Date (NPP) Time (NPP) Lat,Lon (NPP) SZA (NPP ) Distance(km) Time Diff (sec)
1 05/23/2017 18:32:06 80.85,-148.37 63.49 05/23/2017 18:33:17 80.83,-148.35 63.45 1.31 71
2 05/23/2017 19:23:12 -80.85, 18.96 116.53 05/23/2017 19:24:02 -80.84, 18.89 116.55 1.70 50
3 05/23/2017 20:14:08 80.84,-174.01 63.50 05/23/2017 20:14:48 80.85,-174.11 63.49 2.25 40
4 05/23/2017 21:05:14 -80.84, -6.69 116.53 05/23/2017 21:05:32 -80.84, -6.52 116.56 2.96 18
5 05/23/2017 21:56:09 80.85, 160.71 63.46 05/23/2017 21:56:17 80.84, 160.83 63.43 2.46 8
6 05/23/2017 22:47:15 -80.85, -31.97 116.56 05/23/2017 22:47:02 -80.84, -31.93 116.57 1.12 13
7 05/23/2017 23:38:10 80.85, 135.43 63.42 05/23/2017 23:37:47 80.84, 135.43 63.42 1.50 23
8 05/24/2017 00:29:16 -80.86, -57.25 116.60 05/24/2017 00:28:32 -80.84, -57.34 116.57 2.06 44
9 05/24/2017 01:20:12 80.85, 109.79 63.42 05/24/2017 01:19:18 80.86, 109.66 63.47 2.48 54




NCC Satellite Simultaneous Nadir Overpasses (SNOs) Prediction Service
